This is the latest recevied weather packets stored in our database for station/object N8GD. If no packets are shown the sender has not sent any weather packets the latest 10 day(s).
| Time | Temp. | Humidity | Pressure | Rain* | Wind** | Luminosity | Snow |
|---|---|---|---|---|---|---|---|
| 1777748876 | 6.11° C | 76% | 1017.4 hPa | 0 mm | - | - | - |
| 1777747975 | 6.11° C | 77% | 1017.4 hPa | 0 mm | - | - | - |
| 1777747075 | 6.11° C | 79% | 1017.5 hPa | 0 mm | - | - | - |
| 1777746175 | 5.56° C | 80% | 1017.5 hPa | 0 mm | - | - | - |
| 1777745275 | 6.11° C | 82% | 1017.5 hPa | 0.25 mm | - | - | - |
| 1777744374 | 5.56° C | 88% | 1017.4 hPa | 0.25 mm | - | - | - |
| 1777743475 | 4.44° C | 87% | 1017.4 hPa | 0.25 mm | - | - | - |
| 1777743461 | 4.44° C | 87% | 1017.4 hPa | 0.25 mm | - | - | - |
| 1777742575 | 3.89° C | 84% | 1017.5 hPa | 0.25 mm | - | - | - |
| 1777741674 | 5° C | 79% | 1017.3 hPa | 0 mm | - | - | - |
| 1777740906 | 6.11° C | 74% | 1017.3 hPa | 0 mm | - | - | - |
| 1777740775 | 6.11° C | 74% | 1017.3 hPa | 0 mm | - | - | - |
| 1777739874 | 6.67° C | 73% | 1017.1 hPa | 0 mm | - | - | - |
| 1777738976 | 6.67° C | 75% | 1017.2 hPa | 0 mm | - | - | - |
| 1777738074 | 6.67° C | 69% | 1016.9 hPa | 0 mm | - | - | - |
| 1777737174 | 7.22° C | 60% | 1016.8 hPa | 0 mm | - | - | - |
| 1777736275 | 6.67° C | 67% | 1016.8 hPa | 0 mm | - | - | - |
| 1777735374 | 6.67° C | 64% | 1016.8 hPa | 0 mm | - | - | - |
| 1777735354 | 6.67° C | 64% | 1016.8 hPa | 0 mm | - | - | - |
| 1777734475 | 6.67° C | 68% | 1016.7 hPa | 0 mm | - | - | - |
| 1777733575 | 6.11° C | 70% | 1016.7 hPa | 0 mm | - | - | - |
| 1777732675 | 6.11° C | 76% | 1016.7 hPa | 0 mm | - | - | - |
| 1777731775 | 5.56° C | 78% | 1016.7 hPa | 0.25 mm | - | - | - |
| 1777730874 | 6.11° C | 80% | 1016.7 hPa | 0.51 mm | - | - | - |
| 1777729975 | 6.11° C | 84% | 1016.6 hPa | 0.51 mm | - | - | - |
* Rain latest hour (hover to see other rain measurements)
** Current wind speed in m/s (hover to see current wind gust speed)